Total_Precipitation_Accumulation
0.00 0.00 0.00 0.00 0.00 0.00 0.00 0.00 0.00 0.00 0.00 0.00 0.00 0.00 0.00 0.00 0.01 0.02 0.03 0.04 0.10 0.14 0.10 0.12 0.15 0.20 0.23
0.00 0.00 0.00 0.00 0.00 0.00 0.00 0.00 0.00 0.00 0.00 0.00 0.00 0.00 0.00 0.00 0.01 0.02 0.03 0.07 0.14 0.11 0.14 0.11 0.18 0.15 0.18
0.00 0.00 0.00 0.00 0.00 0.00 0.00 0.00 0.00 0.00 0.00 0.00 0.00 0.00 0.00 0.01 0.01 0.03 0.08 0.14 0.14 0.19 0.09 0.15 0.24 0.13 0.21
0.00 0.00 0.00 0.00 0.00 0.00 0.00 0.00 0.00 0.00 0.00 0.00 0.00 0.00 0.00 0.01 0.01 0.04 0.13 0.15 0.23 0.18 0.14 0.38 0.34 0.27 0.39
0.00 0.00 0.00 0.00 0.00 0.00 0.00 0.00 0.00 0.00 0.00 0.00 0.00 0.00 0.00 0.02 0.04 0.10 0.21 0.26 0.18 0.17 0.26 0.69 0.71 0.82 0.66
0.00 0.00 0.00 0.00 0.00 0.00 0.01 0.01 0.00 0.00 0.01 0.00 0.00 0.00 0.00 0.03 0.08 0.19 0.37 0.32 0.16 0.18 0.24 0.43 0.58 0.72 0.78
0.00 0.00 0.00 0.00 0.00 0.00 0.00 0.01 0.01 0.00 0.01 0.00 0.00 0.00 0.00 0.03 0.11 0.28 0.54 0.33 0.20 0.16 0.17 0.19 0.22 0.19 0.18
0.00 0.00 0.00 0.00 0.00 0.00 0.00 0.01 0.01 0.01 0.00 0.01 0.00 0.00 0.00 0.01 0.08 0.20 0.39 0.30 0.22 0.13 0.07 0.04 0.03 0.02 0.01
0.00 0.00 0.00 0.00 0.00 0.00 0.01 0.02 0.02 0.01 0.00 0.02 0.01 0.00 0.00 0.01 0.05 0.19 0.32 0.24 0.15 0.08 0.05 0.03 0.03 0.01 0.00
0.00 0.00 0.00 0.00 0.00 0.00 0.01 0.06 0.06 0.06 0.00 0.09 0.01 0.03 0.05 0.00 0.02 0.14 0.17 0.16 0.10 0.07 0.06 0.04 0.02 0.00 0.00
0.00 0.00 0.00 0.00 0.00 0.00 0.01 0.07 0.13 0.08 0.01 0.19 0.06 0.03 0.09 0.04 0.02 0.08 0.11 0.08 0.04 0.05 0.05 0.04 0.01 0.00 0.00
0.00 0.00 0.00 0.00 0.00 0.00 0.00 0.01 0.04 0.09 0.01 0.10 0.13 0.10 0.13 0.07 0.07 0.08 0.12 0.08 0.03 0.02 0.02 0.02 0.00 0.00 0.00
0.00 0.00 0.00 0.00 0.00 0.00 0.00 0.00 0.00 0.00 0.02 0.04 0.08 0.08 0.14 0.13 0.10 0.08 0.10 0.09 0.05 0.02 0.01 0.00 0.00 0.00 0.00
0.00 0.00 0.00 0.00 0.00 0.00 0.01 0.00 0.00 0.00 0.01 0.02 0.05 0.08 0.09 0.07 0.09 0.07 0.07 0.07 0.06 0.03 0.00 0.00 0.00 0.00 0.00
0.00 0.00 0.00 0.00 0.00 0.00 0.01 0.01 0.01 0.01 0.00 0.01 0.02 0.04 0.05 0.06 0.06 0.07 0.06 0.05 0.05 0.03 0.00 0.00 0.00 0.00 0.00
0.00 0.00 0.01 0.01 0.01 0.01 0.01 0.01 0.01 0.01 0.01 0.01 0.01 0.01 0.02 0.03 0.04 0.05 0.06 0.06 0.05 0.03 0.00 0.00 0.00 0.00 0.00
0.01 0.01 0.01 0.01 0.02 0.01 0.01 0.01 0.01 0.01 0.02 0.02 0.02 0.03 0.03 0.03 0.03 0.04 0.05 0.05 0.04 0.04 0.02 0.00 0.00 0.00 0.00